Theta_e
301 301 301 301 301 301 301 301 300 300 299 299 298 298 298 297 297 297 297 297 297 296 296 296 296 296 296 295 295 295 296 296 295 295 293 291 289 288 287 287 287 287 287 287 287 287 287 287 287 287 287 287 287 287 287 287 287 287 287 288 288 288 288 289 289 289 290 290 290 291 291 291 291 292 292 292 292 292 292 292 291 291 291 291 291 291
301 300 300 300 300 301 301 301 301 300 299 298 298 298 297 297 297 297 297 296 296 296 295 295 295 295 295 295 295 295 295 294 293 291 289 287 287 286 286 286 286 286 286 286 286 287 287 287 287 287 287 287 287 287 287 287 287 288 288 288 288 288 288 288 288 289 289 289 289 290 290 290 290 290 290 291 291 290 290 290 290 290 290 290 291 291
300 300 300 300 300 300 300 300 300 300 299 298 298 297 297 297 297 297 296 296 295 295 295 295 295 295 295 294 294 293 292 291 289 287 286 286 286 286 286 286 286 286 286 286 286 286 287 287 287 287 287 287 288 288 288 288 288 288 288 288 288 288 288 288 288 288 288 288 288 289 289 289 289 289 289 289 289 289 289 289 289 289 290 290 290 291
300 300 300 300 300 300 300 299 299 299 298 298 297 297 297 297 296 296 295 295 295 295 295 295 294 294 294 293 292 291 289 287 286 286 286 286 286 285 286 286 286 286 286 286 286 286 286 287 287 287 288 288 288 288 288 288 288 288 288 288 288 288 288 288 288 288 288 288 288 288 288 288 288 288 288 288 288 288 289 289 289 289 289 289 289 290
300 300 299 299 299 299 299 298 298 298 298 297 297 297 296 296 296 295 295 295 295 295 294 294 294 293 292 290 289 288 287 286 286 286 286 286 286 285 285 285 285 285 285 286 286 286 286 287 287 287 288 288 288 288 288 288 289 289 289 289 289 289 289 289 289 289 289 289 289 289 289 289 289 289 288 288 288 288 288 289 289 289 289 289 289 289
300 299 299 298 298 298 298 297 297 297 297 297 296 296 296 296 295 295 295 294 294 294 293 293 292 291 289 288 287 287 287 287 287 286 286 286 285 285 285 285 285 285 285 286 286 286 287 287 287 288 288 288 288 288 289 288 288 289 289 289 289 289 289 289 289 289 289 289 289 289 289 289 288 288 288 288 288 288 288 288 288 289 289 289 289 289
299 299 298 298 298 297 297 297 297 296 296 296 296 296 296 295 295 294 294 293 293 292 291 291 290 289 288 287 287 287 287 287 286 286 286 285 285 285 285 285 285 285 285 286 286 286 287 287 288 288 288 288 288 288 288 288 288 288 288 289 289 289 289 289 289 289 289 288 288 288 288 288 288 288 288 288 288 288 288 288 288 288 289 289 289 289
299 298 298 298 297 297 297 297 296 296 296 296 296 295 295 295 294 294 293 293 292 291 290 289 288 288 287 287 287 287 287 286 286 286 285 285 285 285 285 285 285 285 285 286 286 287 287 287 288 288 288 288 288 288 288 288 288 288 288 288 288 288 288 288 288 288 288 288 288 288 288 288 288 288 288 288 288 288 288 288 288 288 289 289 289 289
298 298 298 297 297 297 296 296 296 296 296 295 295 295 295 294 293 293 292 291 290 289 289 288 288 288 288 287 287 287 287 286 286 285 285 285 285 285 285 285 285 285 286 286 286 287 287 287 288 288 288 288 288 288 288 288 288 288 288 288 288 288 287 287 287 287 287 287 287 288 288 288 288 288 288 288 288 288 288 288 288 288 288 288 288 288
297 297 297 297 297 296 296 296 295 295 295 295 295 294 294 293 292 291 291 290 289 289 288 288 288 288 288 287 287 287 286 286 285 285 284 284 284 284 284 285 285 286 286 286 286 287 287 287 287 288 288 288 288 288 287 287 287 287 287 287 287 287 287 287 287 287 287 288 288 288 288 288 288 288 288 288 288 288 288 288 288 288 288 288 288 288
297 296 296 296 296 296 295 295 295 295 294 294 293 293 292 291 290 290 289 289 288 288 288 288 288 288 287 287 287 286 286 285 285 284 284 284 284 284 284 285 285 286 286 286 287 287 287 287 287 287 287 287 287 287 287 287 287 287 287 287 287 287 287 287 287 288 288 288 288 288 288 288 288 288 288 288 288 288 288 288 288 288 288 288 288 288
296 296 296 295 295 295 294 294 293 293 293 292 292 291 290 289 289 288 288 288 288 288 288 288 288 287 287 287 286 286 285 285 284 284 284 284 284 284 285 285 286 286 286 286 286 286 286 286 286 287 287 287 287 287 287 287 287 287 287 287 287 287 288 288 288 288 288 288 288 288 288 288 288 288 288 288 288 288 288 288 288 288 288 288 288 288
296 295 295 295 294 293 293 292 292 291 291 290 290 289 289 288 288 288 288 288 288 288 288 287 287 287 286 286 285 285 285 284 284 284 284 284 284 285 285 286 286 286 286 286 286 286 286 286 286 286 287 287 287 287 287 287 287 287 287 287 288 288 288 288 288 288 288 288 288 288 288 288 288 288 288 288 288 288 288 288 288 288 288 288 288 288
294 294 293 293 292 291 291 290 290 289 289 289 288 288 288 288 288 288 288 288 287 287 287 287 287 286 286 286 285 285 284 284 284 284 284 284 285 285 285 286 286 286 286 286 286 286 286 286 286 287 287 287 287 287 287 287 287 287 287 288 288 288 288 288 288 288 288 288 288 288 288 288 288 288 288 288 288 288 288 288 288 288 288 288 288 288
292 292 291 290 290 290 289 289 289 288 288 288 288 288 288 288 288 288 288 287 287 287 287 287 286 286 286 285 285 284 284 284 284 284 284 285 285 285 286 286 286 286 286 286 286 286 286 286 287 287 287 287 287 287 287 287 287 287 288 288 288 288 288 288 288 288 288 288 288 288 288 288 288 288 288 288 288 288 288 288 288 288 288 288 288 288
290 290 290 289 289 289 289 289 288 288 288 288 288 288 288 288 288 288 287 287 287 287 287 287 286 286 285 285 284 284 284 284 284 284 285 285 286 286 286 286 286 286 286 286 286 286 286 286 287 287 287 287 287 287 287 287 287 288 288 288 288 288 288 288 288 288 288 288 288 288 288 289 289 288 288 288 288 288 288 288 288 288 288 288 288 288
289 289 289 289 289 289 288 288 288 288 288 288 288 288 288 288 287 287 287 287 287 287 286 286 286 285 285 285 284 284 283 283 284 284 285 286 286 286 286 286 286 286 286 286 286 286 286 287 287 287 287 287 287 287 287 287 288 288 288 288 288 288 288 288 288 288 289 289 289 289 289 289 289 289 289 289 289 289 288 289 288 288 288 289 288 288
289 288 288 288 288 288 288 288 288 288 288 288 288 288 288 287 287 287 287 287 286 286 286 286 285 285 285 285 284 284 283 283 284 285 285 286 286 286 286 286 286 286 286 286 286 286 287 287 287 287 287 287 287 287 288 288 288 288 288 288 288 288 289 289 289 289 289 289 289 289 289 289 289 289 289 289 289 289 289 289 289 289 289 289 289 289
288 288 287 287 287 287 288 288 288 288 288 288 288 288 287 287 287 287 286 286 286 286 286 285 285 285 284 284 284 283 283 283 284 285 286 287 287 286 286 286 286 287 287 286 286 286 287 287 287 287 287 287 287 288 288 288 288 288 289 289 289 289 289 289 289 289 289 289 289 289 289 289 289 289 289 289 289 288 288 289 289 289 289 289 289 289
287 287 287 287 287 287 287 287 287 288 288 288 287 287 287 287 286 286 286 286 285 285 285 285 285 284 284 283 283 283 283 284 285 285 286 287 287 286 286 286 287 287 287 287 286 287 287 287 287 287 287 288 288 288 288 288 289 289 289 289 289 289 289 289 289 289 289 289 289 289 289 289 289 289 289 289 289 289 289 289 289 289 289 289 289 289
287 287 287 287 287 287 287 287 287 287 287 287 287 287 286 286 286 286 286 285 285 285 285 285 284 284 283 283 283 284 284 285 285 286 286 287 287 287 286 287 287 287 287 287 287 287 287 287 287 287 288 288 288 288 288 289 289 289 289 289 289 289 289 289 289 289 289 289 289 289 289 289 289 289 289 289 289 289 289 289 289 289 289 289 288 288
287 287 287 287 287 287 287 287 287 286 286 286 286 286 286 286 286 285 285 285 285 285 285 284 284 283 283 283 284 284 285 285 285 286 286 287 287 287 286 287 287 287 287 287 287 287 287 288 288 288 288 288 288 288 288 289 289 289 289 289 289 289 289 289 289 289 289 289 289 289 289 289 289 289 289 289 289 289 289 289 289 289 289 288 288 288
286 286 286 286 286 286 286 286 286 286 285 285 285 285 285 285 285 285 285 285 284 284 283 283 283 283 283 284 284 285 285 285 285 286 286 287 288 287 287 287 287 287 288 288 288 288 288 288 288 288 288 288 288 288 289 289 289 289 289 289 289 289 289 289 289 289 289 289 289 289 289 289 289 289 289 289 289 289 289 289 289 289 288 288 288 288
286 286 286 286 286 286 286 285 285 285 285 285 285 285 285 284 284 284 284 283 283 283 283 282 283 283 284 285 285 285 285 285 285 286 286 287 287 287 287 287 287 288 288 288 288 288 288 288 288 288 288 288 288 289 289 289 289 289 289 289 289 289 289 289 289 289 289 289 289 289 289 289 289 289 289 289 289 289 289 289 289 289 289 288 288 288
285 285 285 285 285 285 285 285 285 284 284 284 284 284 284 284 283 283 283 283 283 282 282 283 284 284 285 286 286 286 285 285 285 286 286 287 287 288 287 287 288 288 288 288 288 288 288 289 288 288 288 288 289 289 289 289 289 289 289 289 289 289 289 289 289 289 289 289 289 289 289 289 289 289 289 289 289 289 289 289 289 289 289 288 288 289
284 284 284 284 284 284 284 284 284 284 284 284 284 284 283 283 283 283 283 283 283 283 283 284 285 286 286 286 286 286 286 286 286 286 286 287 287 288 287 287 288 288 289 289 289 288 289 289 289 289 289 289 289 289 289 289 289 289 289 289 289 289 289 289 289 289 289 289 289 289 289 289 289 289 289 289 289 289 289 289 289 289 289 289 289 289
284 284 284 284 284 283 283 283 283 283 283 283 283 283 283 283 283 283 283 283 283 284 284 285 286 286 286 287 287 287 286 286 286 286 287 287 287 287 287 287 288 288 289 289 289 289 289 289 289 289 289 289 289 289 289 289 289 289 289 289 289 289 289 289 289 289 289 289 289 289 289 289 289 289 289 289 289 289 289 289 289 289 289 289 289 289
283 283 283 283 283 283 283 282 282 282 282 282 282 282 282 282 282 283 283 283 284 284 285 285 286 286 286 287 287 287 286 286 286 287 287 287 287 287 287 287 287 288 288 289 289 289 289 289 289 289 289 289 289 289 289 289 289 289 289 289 289 288 289 289 289 289 289 289 289 289 289 289 289 289 289 289 289 289 289 289 289 289 289 289 289 289
283 283 283 283 283 282 282 282 282 282 282 281 281 282 282 282 282 283 283 284 284 285 285 285 285 286 286 286 287 287 287 286 286 287 287 287 287 287 287 287 287 287 288 289 289 289 289 289 289 289 289 289 289 289 289 289 289 289 289 289 289 289 288 289 289 289 289 289 289 289 289 289 289 289 289 289 289 289 289 289 288 288 288 288 288 288
282 282 282 282 282 282 282 282 282 281 281 281 282 282 282 282 283 283 284 284 285 285 285 285 285 285 286 286 287 287 287 286 286 286 286 286 286 286 287 287 287 287 288 288 289 290 290 290 289 289 289 289 289 289 289 289 289 289 289 289 289 289 289 289 289 289 289 289 289 289 289 289 289 289 289 289 288 288 288 288 288 288 288 288 288 288
282 282 282 282 282 282 282 281 281 281 281 282 282 282 283 283 284 284 284 285 285 285 285 285 285 285 286 286 286 287 287 286 286 286 286 286 286 287 287 287 287 288 288 288 288 289 290 290 290 289 289 290 290 290 290 289 289 289 289 289 289 289 289 289 289 289 289 289 289 289 289 289 288 288 288 288 288 288 288 288 288 287 287 288 288 288
281 281 281 281 281 281 281 281 281 281 282 282 283 283 284 284 284 284 285 285 285 285 285 285 285 286 286 286 286 286 286 286 286 286 286 286 287 287 287 287 288 288 288 288 288 288 288 290 290 290 290 290 290 290 290 290 290 290 290 290 290 289 289 289 289 289 289 289 289 289 288 288 288 288 288 288 288 288 288 287 287 287 287 287 287 287
281 281 281 281 281 281 281 281 281 282 282 283 283 284 284 284 285 285 285 285 285 285 285 285 285 286 286 286 286 286 286 286 286 286 286 286 287 287 288 288 288 288 288 288 288 288 288 289 290 290 290 290 290 290 290 290 290 290 290 290 290 290 289 289 289 289 289 289 289 289 288 288 288 288 288 288 288 288 287 287 287 287 287 287 287 287
281 281 281 281 281 281 281 281 282 282 283 283 284 284 285 285 285 285 285 285 285 285 285 285 285 285 285 286 286 287 286 286 286 286 286 286 287 287 288 288 288 288 288 289 289 289 289 289 290 290 290 291 290 290 290 290 290 290 290 290 290 290 290 289 289 289 289 289 289 289 289 288 288 288 288 288 288 288 287 287 287 287 287 286 286 286
281 281 281 281 281 281 281 282 282 283 283 284 284 285 285 285 285 285 285 285 285 285 285 285 285 285 285 285 286 286 287 286 286 286 286 286 287 287 288 288 288 288 288 288 289 289 289 289 290 290 290 290 291 290 290 290 290 290 290 289 290 290 290 289 289 289 289 289 289 289 289 289 288 288 288 288 288 288 288 287 287 287 286 286 286 286
281 281 281 281 281 281 282 282 283 283 284 284 285 285 285 285 285 285 285 285 285 285 285 285 285 286 286 286 286 286 287 286 286 286 286 287 287 287 288 288 288 288 288 288 288 288 288 289 289 289 289 290 290 291 290 290 289 289 290 290 290 289 289 289 289 289 289 289 289 289 289 289 289 288 288 288 288 288 288 287 287 287 286 286 286 285
281 281 281 281 281 281 282 283 283 284 284 285 285 285 285 285 285 285 285 285 285 285 285 285 285 286 286 286 286 286 287 287 286 286 286 287 287 287 287 288 288 287 287 287 287 287 287 288 288 288 289 289 289 290 290 290 290 290 290 290 290 290 290 289 289 289 289 289 289 289 289 289 289 288 288 288 288 288 288 287 287 287 287 286 286 286
281 281 281 281 281 282 283 283 284 284 285 285 285 285 285 285 285 285 285 285 285 285 286 286 286 286 286 286 286 286 286 287 286 286 286 286 287 287 287 287 287 287 287 287 287 287 287 286 287 287 288 288 289 289 289 289 290 290 290 290 290 290 290 289 289 289 289 289 289 289 289 288 288 288 288 288 288 287 287 287 287 287 287 286 286 286
281 281 281 281 282 283 284 284 285 285 285 285 285 285 285 285 285 285 285 285 286 286 286 286 286 286 286 286 286 286 286 286 286 286 286 286 287 287 287 287 287 287 287 286 286 286 286 286 286 286 286 287 288 288 288 289 289 289 290 290 290 290 289 289 289 289 289 288 288 288 288 288 288 288 288 287 287 287 287 288 287 287 287 287 286 286
281 281 281 282 283 283 284 285 285 285 285 285 285 285 285 285 285 285 285 286 286 286 286 286 286 286 286 286 286 286 286 286 286 286 286 286 286 287 287 287 287 287 287 286 286 286 286 285 285 285 286 286 286 287 288 288 288 289 289 289 289 290 289 289 289 288 288 288 288 288 288 288 288 287 287 287 287 287 287 287 287 287 287 286 286 286
281 281 281 282 283 284 284 285 285 285 285 285 285 285 285 285 286 286 286 286 286 286 286 286 286 287 287 286 286 286 286 286 286 286 286 286 286 286 287 287 287 286 286 286 286 286 286 285 285 285 285 285 285 286 286 287 287 287 287 287 287 288 288 288 288 288 288 288 287 287 287 287 287 287 287 287 287 287 287 287 287 287 286 286 286 286
281 281 282 283 283 284 285 285 285 285 285 285 285 285 285 286 286 286 286 286 286 286 286 286 287 287 287 287 286 286 286 286 286 287 287 287 286 286 286 286 286 286 286 286 286 286 285 285 285 285 285 284 284 284 285 286 287 286 286 286 286 287 287 287 287 287 287 287 287 287 286 286 286 286 286 286 286 286 286 286 286 286 286 286 286 286
281 281 282 283 284 284 285 285 285 285 285 285 285 285 285 286 286 286 286 286 286 286 286 287 287 287 287 287 287 287 287 287 287 287 287 287 286 286 286 286 286 286 286 285 285 285 285 285 285 285 285 284 284 284 284 285 286 286 286 285 285 284 285 286 286 286 286 286 286 286 286 286 285 285 285 285 286 286 286 286 286 286 286 286 286 285
281 281 282 283 284 284 285 285 285 285 285 285 285 285 286 286 286 286 286 286 286 286 287 287 287 287 287 288 288 288 287 287 287 287 287 287 286 286 286 286 285 285 285 285 285 285 285 285 285 284 284 284 283 283 284 284 285 285 285 285 284 284 284 285 285 285 286 286 286 286 285 285 285 285 285 285 285 286 286 286 286 286 286 286 285 285
281 282 283 284 284 284 285 285 285 285 285 285 285 285 285 286 286 286 286 286 286 287 287 287 287 287 287 288 288 288 288 288 287 287 287 286 286 286 286 286 285 285 285 285 285 284 284 284 284 284 284 283 283 283 283 284 284 285 285 285 284 284 284 285 285 285 285 285 285 285 285 284 284 284 284 285 285 285 285 285 286 286 286 286 285 285
281 282 283 284 284 285 285 285 285 285 285 285 285 285 285 285 285 285 286 286 286 286 286 287 287 286 287 287 288 288 288 288 288 287 287 286 286 286 286 286 285 285 285 285 285 284 284 284 284 284 284 283 283 283 284 284 284 284 284 284 284 284 284 284 284 284 284 284 284 284 284 283 283 283 283 283 284 284 285 285 285 285 285 285 285 285
282 283 284 284 284 285 285 285 285 285 285 285 285 285 285 285 285 285 285 285 286 286 286 286 286 286 286 287 287 287 288 288 288 288 287 287 287 286 286 286 285 285 285 285 285 284 284 284 284 283 283 283 283 284 284 284 284 284 284 284 284 284 284 284 284 284 284 284 284 284 283 283 282 282 282 282 283 283 284 284 284 284 284 285 285 285
282 283 284 284 284 285 285 285 285 285 285 285 285 285 285 285 285 285 285 285 285 286 286 286 286 286 286 286 286 287 287 287 288 288 288 287 287 287 287 286 286 285 285 285 285 285 284 284 284 284 283 283 283 284 284 284 284 284 284 284 284 283 284 284 284 284 283 283 283 282 282 282 282 282 282 282 282 282 283 283 284 284 284 284 284 285
283 283 284 284 284 285 285 285 285 285 285 285 285 285 285 284 284 284 285 285 285 285 285 285 285 285 286 286 286 286 287 287 287 288 288 287 287 287 287 287 286 286 285 285 285 285 284 284 284 284 284 284 284 284 284 284 284 284 284 283 283 283 283 283 283 283 283 283 282 282 281 281 281 281 282 282 282 282 282 283 283 284 284 285 285 285
283 284 284 284 284 284 285 285 285 285 285 284 284 284 284 284 284 284 284 284 285 285 285 285 285 285 285 286 286 286 286 286 287 287 287 287 287 287 287 287 287 286 286 285 285 284 284 284 284 284 284 284 284 284 284 284 284 284 284 283 283 283 283 283 283 283 282 282 282 281 281 281 281 281 282 282 282 282 282 282 283 284 285 285 285 285
283 284 284 284 284 284 284 284 284 284 284 284 284 284 284 284 284 284 284 285 285 285 285 285 285 284 285 285 285 286 286 286 286 287 287 287 287 287 287 287 287 286 285 285 284 284 283 283 283 283 284 284 284 284 284 284 284 284 283 283 283 283 282 282 282 282 282 282 282 281 281 281 281 281 281 281 281 281 282 282 283 284 285 285 285 285
Wind_Speed
19 18 18 16 15 15 16 18 20 23 25 27 28 30 31 32 32 31 29 27 25 22 20 19 18 18 18 19 19 19 19 19 18 16 15 14 14 14 14 15 15 16 16 16 17 17 18 18 18 19 19 19 19 18 18 18 18 18 18 17 17 17 17 16 16 16 16 16 17 17 17 18 18 18 19 20 21 21 21 21 21 20 20 20 20 19
20 19 19 18 16 15 16 16 16 17 19 21 23 24 25 26 25 23 21 19 18 17 16 17 17 17 17 17 17 17 16 15 13 12 12 13 14 14 15 15 16 16 17 17 17 18 18 18 18 18 17 17 17 17 17 17 16 16 16 16 16 16 16 16 17 17 17 17 18 18 19 20 20 20 21 21 21 21 21 21 20 20 19 18 17 17
20 20 19 18 17 16 15 15 14 14 14 16 17 17 17 18 17 16 15 15 15 15 15 16 16 16 16 16 15 14 13 11 11 11 12 13 14 15 16 16 17 17 17 18 18 17 17 17 16 16 16 15 15 15 15 15 15 15 15 15 15 15 15 16 16 17 17 17 18 18 19 19 20 20 20 20 20 19 19 18 18 17 17 16 16 16
17 17 16 15 14 13 12 11 11 11 11 12 12 12 13 13 12 12 13 14 14 14 14 14 14 14 14 13 12 11 11 11 11 12 13 13 14 15 16 17 17 17 18 17 17 17 16 16 15 15 14 14 14 13 13 13 13 13 13 13 14 14 15 15 16 16 16 16 17 17 17 18 17 17 17 16 16 16 16 16 16 16 16 16 16 16
13 13 12 11 10 9 9 8 8 9 9 10 10 10 10 10 11 12 12 13 13 13 13 12 12 12 11 11 10 11 11 11 11 12 13 14 15 16 17 17 17 17 17 17 16 16 15 15 14 14 13 13 12 12 12 12 12 12 13 13 13 14 15 15 15 16 16 16 16 16 17 16 15 15 14 14 14 14 14 15 15 15 15 16 16 16
9 9 8 8 7 7 7 7 7 7 8 8 8 9 9 10 10 11 11 11 11 11 11 10 10 10 10 10 11 11 11 11 11 12 13 14 15 16 17 17 17 17 16 16 15 14 14 13 12 12 11 11 11 11 12 12 12 13 13 14 14 15 16 16 15 15 15 15 16 16 16 15 15 14 14 14 14 14 15 15 15 16 16 16 16 16
7 6 6 6 5 5 5 6 6 6 6 7 7 8 9 9 9 9 9 9 9 9 9 9 9 9 10 11 11 11 11 11 12 13 14 15 16 16 17 17 17 16 15 15 13 13 12 11 11 10 11 11 12 12 13 13 14 14 15 16 16 16 16 16 16 15 15 15 15 15 15 15 14 14 14 15 15 15 16 16 16 16 17 17 17 17
4 5 4 4 4 4 5 5 5 5 6 7 7 8 8 9 9 9 9 9 9 8 8 8 9 10 11 11 11 11 11 12 13 14 15 15 16 16 16 16 16 15 15 14 13 12 11 11 11 11 12 13 14 15 15 15 16 16 17 17 17 17 16 16 16 15 15 15 15 15 15 15 15 15 15 16 16 16 17 17 17 17 18 18 18 18
3 3 3 4 4 4 4 5 5 6 6 7 8 8 8 8 8 8 8 8 8 9 9 9 10 10 11 11 11 11 12 13 14 15 15 16 17 17 16 16 16 15 15 14 14 13 13 13 14 14 15 15 16 16 17 17 17 17 17 17 17 16 16 15 15 15 15 15 15 15 15 16 16 16 16 17 17 17 18 18 18 18 18 18 18 18
2 2 3 4 4 4 5 5 6 7 7 8 8 9 9 8 8 8 8 8 8 9 9 10 10 11 11 11 11 12 13 13 14 15 16 17 17 17 16 16 15 15 15 15 15 15 15 15 15 16 16 17 17 17 17 17 17 17 17 16 16 15 15 14 14 14 15 15 15 16 16 16 16 17 17 17 18 18 18 18 18 18 18 18 18 17
3 3 3 4 5 5 6 6 7 8 8 8 9 9 9 8 8 8 8 8 8 9 10 10 11 11 12 12 12 13 13 14 15 16 16 17 17 16 16 15 14 13 13 13 14 14 14 15 15 16 16 16 16 16 17 16 16 16 15 15 14 14 14 14 14 14 15 15 15 16 16 16 16 17 17 17 17 17 18 18 18 18 18 17 17 17
5 5 5 5 6 6 7 8 8 9 8 8 8 7 7 6 7 8 9 9 9 9 10 11 11 12 13 13 14 14 14 15 16 17 16 16 15 15 14 13 12 12 12 12 12 13 13 14 15 15 15 15 15 15 15 15 14 14 14 13 13 14 14 14 14 14 15 15 15 15 16 16 16 16 16 16 17 17 17 17 17 17 18 18 17 17
8 8 8 8 8 8 8 8 8 8 7 6 6 6 6 6 7 8 9 9 10 10 11 12 13 13 13 13 14 15 16 17 17 17 16 14 13 12 12 11 11 11 11 11 12 12 13 14 14 14 14 14 14 13 13 13 12 12 13 13 13 13 14 14 14 15 15 15 15 15 15 15 16 16 16 16 16 16 17 17 17 18 18 18 18 18
9 9 9 9 8 8 7 6 6 5 5 5 5 6 6 7 8 9 10 11 11 12 12 13 14 14 14 14 15 16 17 18 18 17 15 12 11 10 11 11 11 11 11 11 12 12 13 14 14 13 13 13 12 12 11 11 11 12 12 12 13 13 14 14 14 15 15 15 15 15 16 16 16 16 16 16 17 17 17 18 18 19 19 19 19 19
8 8 7 6 5 5 4 4 4 4 5 5 6 7 8 9 10 10 11 12 13 13 14 15 15 16 16 16 16 16 17 18 18 16 13 10 9 9 10 11 11 11 11 12 12 12 13 13 13 12 12 11 10 10 10 10 11 11 12 12 13 14 14 15 15 15 16 16 16 16 16 17 17 17 17 17 18 18 18 19 20 20 20 20 21 21
6 5 4 4 4 4 4 4 5 5 6 7 7 8 9 10 11 12 13 14 14 15 16 16 17 17 17 16 16 16 17 17 17 15 12 9 7 8 10 11 11 11 11 11 11 12 12 12 11 11 10 10 9 9 9 10 10 11 12 13 13 14 15 15 16 17 17 17 17 17 17 17 18 18 18 18 19 19 20 20 21 21 21 21 21 21
5 4 4 4 4 4 5 5 6 7 7 8 9 10 11 12 13 13 14 15 16 17 17 18 19 19 19 17 16 16 16 17 16 14 12 8 7 7 10 11 11 10 10 10 10 11 11 11 11 10 10 9 9 9 9 10 10 11 12 13 14 15 15 16 17 17 17 18 18 18 18 18 18 18 19 19 19 20 20 21 21 21 21 21 21 21
5 5 5 5 5 6 6 7 7 8 9 10 11 12 13 14 14 15 16 16 17 17 18 18 19 20 21 21 18 16 16 16 16 14 11 9 7 7 9 10 10 10 9 9 10 10 11 10 10 10 9 9 9 9 9 10 11 12 12 13 14 15 15 16 17 17 17 17 17 17 17 17 18 18 19 19 20 20 21 21 21 21 21 21 21 21
6 6 6 6 7 7 8 8 9 10 11 12 13 14 14 15 15 16 17 17 18 18 19 19 19 20 21 22 19 16 14 15 15 13 11 9 6 5 8 9 10 9 9 9 9 10 10 10 10 10 9 9 9 9 10 10 11 12 13 13 14 14 15 15 16 16 16 16 17 17 17 17 18 19 19 20 21 21 21 21 21 21 21 21 22 22
7 7 7 8 8 9 10 11 11 12 13 13 14 15 15 16 17 17 17 18 18 19 19 20 20 20 20 20 18 14 12 13 13 13 11 9 6 4 7 8 9 8 8 8 9 10 10 10 10 9 9 9 9 10 10 11 11 12 12 13 13 13 14 14 15 15 16 16 17 17 18 18 19 19 20 21 21 22 22 22 22 22 22 23 23 23
7 8 8 9 10 11 12 13 13 14 14 15 16 16 17 17 18 18 19 19 20 20 21 21 21 20 19 18 15 12 10 12 13 13 12 9 6 4 6 8 8 8 8 8 9 10 10 10 10 9 9 9 10 10 10 10 11 11 11 11 12 12 13 13 14 15 16 17 17 18 18 19 20 20 21 22 22 23 23 23 23 23 23 24 24 24
9 10 11 11 12 13 14 15 15 15 16 17 17 18 18 19 19 20 20 20 21 21 21 21 20 18 16 14 11 10 10 12 13 13 12 10 7 5 6 8 9 8 8 9 9 10 10 10 9 9 9 10 10 10 10 10 10 10 10 10 10 11 12 13 14 15 16 17 17 18 19 20 20 21 22 22 23 23 23 24 24 24 24 24 25 25
12 13 14 14 14 15 16 17 17 18 18 18 19 19 19 20 20 20 21 21 21 21 21 19 17 15 13 12 10 10 11 12 13 13 13 12 9 6 7 8 9 9 9 9 9 10 10 9 9 9 9 10 10 10 10 10 10 9 9 9 10 11 12 13 14 15 16 16 17 18 19 20 21 21 22 22 23 23 24 24 24 24 25 25 25 26
15 15 16 16 17 17 17 18 18 19 19 19 19 20 20 20 20 20 20 20 20 19 19 17 15 14 12 11 9 9 10 12 13 13 13 13 11 9 7 8 8 9 9 9 9 9 9 9 9 9 10 11 11 11 10 10 9 9 9 9 10 11 12 13 14 15 16 16 17 18 19 20 21 21 22 22 23 23 24 24 25 25 26 26 26 27
15 16 16 16 16 17 17 17 18 19 19 19 18 19 19 19 19 19 19 18 18 17 16 15 13 11 10 9 8 7 8 11 12 12 13 13 12 9 7 8 8 9 9 8 9 9 10 9 10 10 11 11 11 10 10 9 9 9 9 10 11 12 13 13 14 15 16 17 18 18 19 20 21 21 22 23 23 24 24 25 26 26 26 27 28 29
15 15 15 15 15 16 16 17 17 17 16 17 17 18 18 18 18 18 17 16 15 14 13 12 11 10 9 8 8 7 7 9 11 12 12 13 12 10 8 8 9 10 10 9 9 10 10 10 10 11 11 11 11 10 9 9 8 9 10 11 12 13 13 14 15 15 16 17 18 19 20 20 21 22 22 23 24 24 25 25 26 26 27 28 29 30
14 14 14 14 15 15 16 16 16 16 15 16 16 17 18 18 17 16 15 14 13 13 12 12 12 11 10 10 9 9 8 9 10 11 12 12 11 10 9 9 10 11 11 11 10 11 11 12 12 11 11 11 10 9 9 8 9 10 11 12 13 13 14 14 15 15 16 17 18 19 20 20 21 22 22 23 23 24 25 25 26 26 27 28 29 30
14 14 14 14 15 15 16 16 16 16 16 16 16 16 17 17 16 15 15 13 13 13 13 13 13 13 12 12 11 9 8 9 9 10 11 11 11 12 11 11 12 13 14 14 13 13 13 13 13 12 11 10 10 9 9 10 11 12 12 13 13 13 13 14 14 15 16 17 18 18 19 20 20 21 21 22 22 23 23 24 25 25 26 27 28 29
15 15 15 15 15 15 15 15 15 15 15 15 15 16 16 16 15 14 13 12 12 13 13 13 13 13 14 14 12 10 9 8 9 9 10 11 12 13 13 13 14 15 16 17 16 15 15 14 13 12 11 10 10 10 11 12 13 13 13 13 13 13 13 13 14 14 15 16 17 18 18 19 19 20 20 20 21 22 22 23 23 24 25 26 27 28
15 15 15 15 15 15 15 15 14 14 14 14 14 14 15 14 14 13 12 12 12 13 14 14 14 14 14 14 14 12 8 7 8 9 10 11 13 14 14 14 14 15 16 18 19 19 17 15 13 12 12 12 12 13 14 14 14 14 14 13 13 12 12 12 13 14 14 15 16 16 17 17 18 18 18 19 19 20 21 21 22 23 25 26 26 27
14 15 15 14 14 14 14 14 13 13 13 13 13 13 13 12 12 12 12 12 13 14 14 14 14 14 14 14 14 13 10 7 7 10 11 12 14 15 14 14 14 14 15 17 19 20 20 17 15 14 15 15 16 16 16 16 15 15 14 13 13 12 12 12 12 13 14 14 15 15 15 16 16 16 17 17 18 19 19 20 21 23 24 25 26 26
13 13 13 13 13 13 13 13 13 13 12 12 12 12 12 12 12 12 12 13 14 14 15 15 14 13 13 12 13 13 12 9 9 10 11 13 14 14 14 14 14 14 14 15 17 18 19 21 21 20 19 19 19 18 17 17 17 16 16 15 14 13 13 13 13 13 13 14 14 14 14 14 15 15 16 16 17 17 18 19 20 22 23 24 25 26
12 12 12 12 12 13 13 13 12 12 12 11 11 11 12 12 12 12 13 13 14 14 14 14 14 13 13 12 12 12 12 11 10 10 11 12 14 15 15 14 14 14 14 15 16 17 18 22 24 24 23 22 21 20 19 19 18 18 18 17 16 15 14 14 14 14 14 14 14 14 14 14 14 15 15 15 16 17 17 18 19 20 21 22 23 24
11 11 11 12 12 12 12 12 12 11 11 11 11 11 12 12 12 13 13 13 13 14 14 13 13 13 14 13 13 13 12 11 10 11 12 13 14 15 15 15 15 15 15 15 16 17 19 21 23 24 25 24 23 22 22 21 21 20 19 19 18 18 17 16 15 15 14 14 14 14 14 14 14 14 15 15 15 16 17 17 18 19 19 20 21 23
11 11 11 12 12 11 11 11 11 11 11 11 11 12 12 12 12 12 12 12 13 13 13 13 13 13 14 14 14 14 13 11 10 11 12 13 14 15 15 15 15 16 16 17 18 19 20 21 22 24 25 25 25 23 23 23 22 22 21 20 20 20 19 18 17 16 15 15 15 15 15 15 15 15 15 15 15 16 16 17 17 17 18 19 20 21
11 11 11 11 11 11 11 11 11 11 11 11 11 11 11 11 12 12 12 12 12 12 12 12 12 12 12 13 13 13 12 11 10 11 11 12 13 14 15 15 16 16 16 17 18 19 20 22 23 24 25 26 26 25 24 23 23 22 22 21 21 20 20 19 18 17 16 16 16 16 16 16 16 15 15 15 16 16 16 16 17 17 17 17 18 20
11 11 11 11 11 10 10 10 10 11 11 11 11 11 11 11 11 11 11 12 12 12 12 12 12 12 12 12 12 12 11 10 10 11 12 12 13 14 15 16 16 17 17 17 18 19 21 22 23 24 24 25 26 26 25 24 23 23 22 21 21 20 19 19 18 18 18 17 17 16 16 16 16 16 16 16 16 17 17 17 17 17 17 17 18 19
11 11 11 11 10 10 10 10 10 10 10 10 10 10 11 11 11 11 11 12 12 12 12 11 11 11 11 11 11 11 11 11 11 12 13 13 14 15 15 16 17 17 17 17 18 18 20 21 22 24 25 25 25 25 25 25 24 24 23 21 21 20 19 19 19 18 18 18 17 17 16 16 16 16 16 16 17 17 18 18 18 18 18 18 18 19
11 11 10 10 10 9 9 9 9 10 10 10 10 10 10 10 11 11 11 11 11 11 11 11 11 11 11 11 11 11 12 12 12 13 13 14 15 15 16 16 16 17 17 17 17 18 18 19 21 22 24 25 25 25 25 25 25 24 24 23 22 20 20 19 19 19 18 18 18 17 17 17 16 16 17 17 18 18 19 19 19 19 19 19 19 19
10 10 10 10 9 9 9 9 9 9 9 9 9 10 10 10 11 11 11 11 11 11 11 11 11 11 11 11 11 12 12 12 13 13 14 15 15 15 15 16 16 16 16 16 17 17 17 18 19 21 22 24 25 26 26 25 25 25 26 26 25 23 21 20 20 19 19 19 19 18 18 18 18 18 18 18 19 19 20 21 21 21 21 20 20 20
11 10 10 10 9 9 9 9 8 9 9 9 10 10 10 11 11 11 11 11 11 12 11 11 11 11 11 12 12 12 12 13 13 13 14 14 14 14 14 14 15 15 15 15 16 16 17 17 19 20 21 23 24 25 26 26 26 26 26 27 27 26 24 23 21 20 20 19 19 19 19 19 19 19 20 20 20 21 21 21 21 22 21 21 20 20
11 10 10 9 9 8 8 8 9 9 9 10 10 10 11 11 11 11 11 12 12 12 12 12 12 12 12 12 12 12 12 12 12 12 12 12 12 13 13 13 13 13 14 14 15 16 17 17 19 20 21 22 24 26 27 27 27 26 26 27 28 27 26 24 23 21 21 20 19 19 19 20 20 21 21 21 22 22 21 21 21 21 21 20 20 20
11 10 10 9 9 9 9 9 9 9 9 10 10 11 11 11 12 12 12 12 12 13 13 13 13 13 13 12 12 11 11 11 11 11 11 11 11 11 11 11 12 12 13 14 15 16 17 18 19 20 21 22 23 25 27 28 27 27 26 26 27 28 28 27 24 22 21 20 20 19 20 20 21 21 22 22 22 22 22 21 21 21 20 20 19 19
10 10 9 9 9 9 9 9 9 10 10 10 11 11 12 12 13 13 13 13 13 13 13 13 14 14 13 13 12 10 10 10 9 9 9 9 9 10 10 10 10 11 12 13 15 16 18 19 20 20 21 22 23 25 27 28 28 27 27 25 25 26 27 26 25 23 22 22 21 20 20 20 21 22 23 23 23 23 22 22 22 21 20 19 19 19
10 10 9 9 9 9 9 10 10 10 10 11 11 12 13 13 13 14 14 14 14 14 14 14 14 13 13 12 11 10 9 9 9 9 8 8 9 9 9 9 10 11 12 13 15 16 17 19 20 21 21 22 23 25 26 27 27 27 26 25 24 24 25 24 24 24 24 24 23 22 21 22 23 24 25 25 25 25 24 24 24 23 22 21 20 20
10 9 9 9 9 10 10 10 10 11 11 12 12 13 14 14 14 14 15 15 14 14 14 14 14 13 13 12 11 10 10 10 9 8 8 8 8 8 9 9 10 11 13 14 15 17 18 19 20 21 22 23 24 25 26 26 26 27 26 25 24 24 25 25 24 24 25 25 25 24 24 24 25 26 27 28 29 28 27 26 26 26 25 24 23 22
10 9 9 10 10 10 10 11 11 11 12 12 13 14 14 15 15 15 15 15 15 14 14 14 14 13 13 13 12 12 12 12 11 10 9 9 9 9 10 10 12 13 14 15 16 17 18 19 19 20 21 23 25 26 26 25 25 25 25 25 25 25 26 26 26 25 25 26 26 26 26 26 27 28 29 30 31 31 30 29 28 27 26 25 24 23
9 9 10 10 10 11 11 11 12 12 13 13 14 14 15 16 16 16 15 15 15 14 14 14 14 14 14 13 13 14 14 13 12 12 11 11 11 11 12 12 13 15 16 17 18 19 19 20 20 20 21 22 24 25 25 24 23 23 24 24 25 26 27 28 27 26 26 27 27 27 27 27 28 29 30 31 32 32 32 31 30 28 26 25 24 24
10 10 10 11 11 11 11 12 12 13 13 14 15 15 16 16 16 16 15 14 14 14 14 14 14 14 15 14 14 14 14 14 14 13 12 12 12 13 13 14 15 16 17 18 19 20 21 22 22 22 21 21 22 23 24 24 23 23 24 25 26 27 28 28 28 28 27 28 28 27 27 27 27 28 29 31 33 34 33 32 30 28 26 24 23 22
10 10 11 11 11 12 12 12 13 13 14 15 15 16 16 16 15 14 14 13 13 13 13 14 14 15 15 15 15 15 15 15 14 13 13 13 13 14 15 15 17 18 19 20 20 21 22 23 23 23 22 21 20 21 22 23 24 24 25 25 26 26 27 28 28 28 28 27 27 27 27 27 28 28 28 30 31 33 33 32 30 28 26 23 21 20
10 11 11 11 12 12 12 13 13 14 14 15 16 16 16 16 14 13 13 12 12 13 13 14 15 15 16 16 16 16 16 15 15 15 14 14 15 15 16 17 18 18 19 20 21 22 22 23 24 24 23 20 19 19 19 21 23 24 25 26 26 26 26 27 28 28 28 28 28 28 28 28 28 28 27 28 29 31 32 31 30 28 25 22 21 20
Wind_Direction
291 294 295 295 294 290 285 280 275 270 267 265 262 261 262 264 265 268 270 272 274 274 273 270 268 266 263 260 258 256 255 256 259 265 272 279 283 283 280 278 275 272 271 270 269 269 269 270 271 272 273 274 274 275 274 274 274 273 273 272 270 269 267 266 264 263 262 261 259 258 257 257 257 256 254 253 254 254 256 257 259 261 261 262 263 265
294 296 296 296 295 293 290 286 280 275 271 268 266 265 266 266 268 269 270 271 269 267 264 262 260 258 257 256 255 256 258 263 271 278 280 279 276 273 271 270 269 268 267 267 267 268 269 270 272 273 273 274 275 276 276 276 276 275 275 274 273 271 270 268 266 264 263 261 259 258 257 257 256 256 256 257 258 260 262 264 266 267 268 268 269 270
295 297 297 297 295 293 290 286 282 277 272 269 267 265 264 264 264 264 263 260 257 255 254 254 254 254 255 256 259 263 270 278 282 281 277 273 270 269 268 268 267 267 267 267 267 268 269 270 271 272 272 273 274 275 276 276 277 277 276 276 276 275 274 273 271 269 268 266 265 263 262 262 261 261 261 262 263 265 266 268 268 268 268 268 268 268
299 301 300 300 298 293 288 282 277 271 265 261 259 256 254 253 251 249 247 246 246 248 250 252 254 256 260 265 272 279 284 284 280 276 272 270 269 268 268 269 269 268 268 268 268 268 268 268 269 269 270 270 271 272 273 275 276 278 279 280 281 281 280 279 277 276 276 275 274 273 272 271 270 269 268 268 268 268 268 268 267 266 265 264 264 264
304 304 303 302 296 288 280 271 263 257 252 249 246 244 242 240 238 238 239 241 244 248 252 257 262 267 275 282 287 287 283 278 274 271 271 271 270 270 270 270 270 270 269 269 268 268 268 268 268 268 268 269 269 269 271 272 273 275 276 277 277 276 276 276 276 276 277 278 279 279 278 278 277 277 275 274 272 271 271 270 269 267 265 264 264 264
306 306 304 299 287 275 265 255 247 242 240 238 236 235 234 234 235 237 241 245 250 255 261 269 276 283 286 286 283 279 275 272 272 273 274 274 274 273 272 272 272 271 270 269 268 268 267 267 268 268 267 267 266 265 264 264 265 266 266 266 266 266 266 268 269 271 272 274 275 276 277 279 280 280 279 278 276 275 274 274 273 272 271 269 268 267
309 307 305 295 280 266 254 245 239 236 232 231 233 235 236 238 241 244 248 254 261 267 273 280 283 283 280 276 273 271 271 274 277 278 278 277 276 275 275 274 273 271 269 267 265 263 263 263 263 262 261 260 258 257 257 259 260 261 261 262 263 265 267 269 270 271 272 273 274 276 278 279 280 281 280 279 278 278 277 276 276 276 275 274 273 272
312 307 302 290 277 265 255 247 243 241 239 238 239 242 245 248 251 255 259 265 271 277 280 280 276 272 269 268 268 271 276 281 283 283 281 279 278 277 276 275 272 269 265 261 256 253 252 250 250 250 251 251 253 254 255 258 260 262 264 266 269 271 273 274 275 275 276 276 278 279 280 281 281 281 281 280 280 280 279 279 278 278 277 276 275 275
310 300 292 283 272 264 259 255 254 252 251 250 251 252 254 259 263 268 272 276 279 280 278 275 270 267 265 266 271 277 284 286 287 286 284 283 281 280 278 275 271 267 261 256 250 246 246 245 246 247 249 251 252 255 257 260 263 266 269 272 274 276 277 277 278 278 278 278 279 279 280 280 280 281 281 281 281 281 281 281 281 280 280 279 278 277
293 283 279 275 269 265 260 258 258 258 257 259 261 264 267 273 278 281 281 280 279 277 273 270 268 267 268 272 278 285 288 289 288 287 287 286 284 282 279 275 271 267 262 257 254 251 251 251 252 253 254 256 257 260 262 265 268 271 274 276 277 278 278 278 278 278 278 278 278 278 278 279 280 281 282 282 283 284 284 284 283 283 283 282 281 280
296 286 280 276 272 269 266 263 263 265 268 271 274 278 281 283 285 285 282 278 274 271 268 268 268 272 277 283 288 291 293 292 290 288 287 286 284 282 278 275 270 266 263 261 259 258 258 258 259 259 260 261 262 264 267 269 272 274 275 276 277 277 278 277 277 276 276 276 276 276 277 278 279 281 282 283 285 286 286 287 287 287 287 286 286 284
301 298 294 291 287 284 280 278 278 280 282 283 285 287 287 287 283 279 278 276 272 269 268 270 274 279 285 292 296 298 297 295 293 291 289 286 282 278 275 271 266 263 261 260 259 259 259 260 260 261 262 263 264 266 268 270 272 273 274 275 275 275 275 275 274 274 273 273 273 274 275 276 277 279 281 282 283 285 286 288 289 289 290 289 289 288
297 297 296 295 293 291 290 289 288 288 288 288 287 286 283 279 275 273 273 275 275 274 276 280 284 288 292 296 300 301 300 297 295 293 291 287 280 273 268 264 261 260 259 259 259 259 259 259 260 261 262 263 265 266 267 269 270 271 271 272 273 273 273 272 271 271 270 271 271 272 273 274 275 276 277 279 281 283 285 286 287 287 287 287 287 286
293 293 293 292 291 290 290 289 287 284 281 279 276 276 274 271 271 272 274 277 280 283 287 290 293 296 298 300 301 301 299 297 295 293 291 285 276 266 260 257 256 256 258 259 259 259 259 260 261 262 263 264 265 265 266 267 268 269 270 271 271 270 270 269 269 268 268 269 269 270 270 271 272 273 275 276 278 280 281 281 281 281 281 281 281 280
289 289 288 284 281 279 278 276 272 269 268 268 270 273 274 274 275 277 280 282 286 290 293 294 295 297 298 298 299 300 298 296 295 293 289 280 268 260 258 257 256 257 258 259 260 259 259 259 260 261 262 262 262 263 263 264 266 268 269 270 269 269 268 267 267 267 267 267 268 269 269 270 271 272 273 273 274 275 275 276 276 277 277 278 278 279
283 279 269 262 258 257 258 262 264 265 266 270 274 275 276 277 280 283 285 287 289 291 293 293 294 294 294 295 297 299 298 296 295 293 288 274 260 258 259 260 260 259 259 259 258 257 257 257 257 258 258 258 258 259 261 264 267 268 269 270 269 269 268 268 267 267 268 269 270 271 271 272 272 273 273 274 275 275 276 277 278 279 279 281 281 282
270 261 253 250 251 252 252 261 267 271 274 276 277 279 280 281 283 285 286 287 288 289 290 292 293 294 295 296 298 299 299 297 295 291 285 271 261 259 260 261 261 258 255 253 251 251 251 252 252 252 252 252 253 256 260 264 267 269 270 271 271 271 270 270 270 270 271 273 273 274 275 276 276 277 278 278 279 279 279 280 280 281 282 283 284 284
259 259 259 259 259 261 263 268 272 275 277 277 278 280 282 283 284 284 284 285 286 287 289 291 293 294 297 299 301 302 302 297 294 290 283 272 265 263 261 259 257 253 247 243 243 243 244 245 246 247 247 248 251 255 260 264 267 269 271 271 272 272 272 272 273 274 275 276 277 278 278 279 279 279 280 280 280 280 280 280 280 281 281 282 283 283
265 268 269 266 267 269 271 271 271 273 274 275 277 278 279 281 282 283 283 284 285 286 288 289 291 293 296 299 302 303 303 296 293 289 283 273 268 265 259 255 252 247 238 235 236 238 240 242 243 243 244 247 251 256 261 265 268 270 272 272 272 273 273 273 274 275 275 276 277 277 277 278 278 278 278 278 278 278 279 279 279 279 279 279 279 279
272 271 270 271 272 270 268 268 270 272 273 275 277 278 278 279 281 281 282 283 284 285 286 288 290 293 296 298 301 303 300 293 290 288 284 275 273 268 258 253 248 240 231 230 233 236 238 238 239 241 244 248 252 258 263 267 270 272 273 274 273 273 273 273 273 273 273 273 274 274 274 275 275 276 276 277 277 278 279 280 280 280 280 279 279 278
267 264 267 271 270 267 265 268 270 272 274 276 277 277 277 278 279 280 280 281 282 283 285 287 289 292 295 296 299 301 297 291 290 290 286 278 273 270 264 257 250 241 230 229 232 235 236 236 237 240 245 251 256 261 267 270 273 274 275 275 275 274 274 273 272 272 271 271 272 272 273 274 275 276 276 278 278 279 280 281 281 281 281 280 280 279
264 262 265 266 266 267 268 269 271 274 275 275 276 276 277 277 278 278 279 280 281 283 285 287 290 292 292 292 294 296 294 291 291 292 290 281 275 275 275 264 257 247 234 228 231 235 234 235 238 244 251 257 262 266 270 273 274 274 274 275 275 275 275 274 273 273 272 273 273 274 275 276 277 278 279 279 280 280 281 281 281 280 280 279 279 279
264 263 265 266 267 268 270 272 273 275 274 274 275 275 276 277 278 279 280 281 283 285 287 288 290 290 289 288 289 291 292 290 289 290 290 283 279 279 277 269 261 252 239 232 232 234 234 236 243 252 260 264 267 270 272 272 272 272 273 275 277 278 278 277 276 275 275 275 275 276 276 277 278 278 279 279 279 280 279 279 279 279 278 278 278 278
267 267 269 270 271 272 273 274 274 274 275 275 276 277 278 279 280 281 282 284 285 287 288 288 287 285 284 282 283 286 289 287 288 288 288 283 280 280 278 271 262 252 241 238 239 240 240 243 251 261 267 269 270 271 271 270 270 272 276 280 282 283 282 281 280 279 278 278 278 278 278 278 278 278 278 278 278 278 278 277 277 277 276 277 277 277
277 277 277 276 276 275 274 274 274 275 277 280 281 282 282 283 284 284 285 286 287 287 287 286 285 283 280 275 275 279 285 284 285 287 286 284 281 280 280 272 265 257 247 245 248 252 254 256 261 268 271 272 272 271 270 270 272 277 284 289 290 290 288 286 285 283 282 281 281 280 279 279 279 278 278 278 277 277 277 276 276 276 276 276 276 276
288 286 284 281 278 276 274 274 274 276 279 281 283 284 285 285 286 286 287 288 289 290 291 290 289 288 286 280 281 285 290 286 285 284 284 284 282 280 281 275 272 268 262 259 262 267 268 268 272 275 276 276 275 273 272 274 279 287 294 296 297 295 293 291 288 287 285 284 283 281 281 280 280 279 279 278 278 278 277 277 277 276 276 276 276 277
289 287 284 281 279 277 276 276 277 277 277 277 280 282 283 284 285 286 287 289 292 294 294 295 296 297 296 293 292 294 297 292 286 283 283 284 284 284 286 284 284 283 280 278 280 283 284 283 284 284 284 282 280 279 280 284 291 298 301 302 301 298 295 292 290 287 285 283 282 281 281 280 280 279 279 279 279 278 279 278 278 277 277 278 278 279
287 284 281 278 276 275 275 277 278 278 278 277 276 277 278 280 281 282 285 290 293 294 294 297 300 301 302 301 299 299 300 295 288 283 283 285 287 290 293 295 297 298 297 295 293 293 294 294 293 291 289 287 286 287 291 297 302 305 306 305 302 299 295 292 289 286 284 282 281 280 280 279 279 279 279 279 279 279 279 279 279 279 279 280 280 281
283 280 277 274 272 272 272 274 275 276 277 276 275 274 274 277 279 282 287 292 293 293 295 298 300 301 301 300 299 299 303 297 290 287 288 289 291 293 297 300 304 306 306 304 301 299 299 300 298 296 294 293 294 298 302 305 307 307 307 304 302 298 294 290 286 283 281 280 279 279 279 279 279 279 279 279 279 280 280 280 280 281 281 282 283 284
278 277 275 273 272 271 271 271 273 274 275 274 273 273 276 279 282 285 289 291 291 292 294 295 296 297 298 299 299 302 308 303 296 294 296 294 293 295 298 301 305 308 309 309 307 305 304 303 301 300 299 299 301 304 306 307 307 307 305 303 300 297 293 289 285 281 279 278 277 278 278 278 278 278 279 279 280 280 281 281 282 282 282 283 284 285
275 274 274 274 273 273 273 274 274 275 276 275 274 274 276 280 282 284 286 287 288 290 290 292 293 294 297 299 301 305 312 310 303 300 299 295 294 296 300 302 305 307 309 311 311 311 309 307 304 301 302 302 303 305 306 308 308 307 306 304 301 299 295 290 285 281 279 277 277 277 277 277 277 277 277 278 279 280 281 282 282 282 283 284 284 285
275 275 275 275 276 276 277 278 279 279 278 276 275 274 275 276 279 281 283 284 286 287 288 289 292 294 298 301 302 304 310 311 307 302 299 296 296 297 301 303 305 307 308 309 309 309 308 308 306 304 304 305 306 307 308 310 311 310 309 307 305 302 300 296 290 284 280 278 276 276 275 274 274 275 275 277 278 279 280 281 281 282 282 283 283 283
274 275 276 277 278 278 279 279 279 278 277 275 273 272 272 274 276 278 281 282 284 286 288 291 294 298 302 305 305 306 310 313 310 304 300 297 297 298 301 304 305 306 306 306 305 304 303 305 306 306 306 307 308 309 310 312 312 313 311 309 307 306 303 300 295 289 283 279 276 273 272 272 272 272 273 274 276 278 279 280 280 281 281 282 282 283
272 273 275 277 278 278 278 278 277 275 273 272 270 270 271 273 276 278 280 283 285 288 291 295 298 300 303 304 305 307 311 313 309 304 301 299 298 298 301 303 304 305 305 304 303 302 301 302 304 305 306 306 307 309 311 312 313 313 313 311 310 308 306 303 298 292 285 279 275 272 271 270 269 270 270 272 274 276 278 279 280 280 280 280 281 282
271 272 274 276 277 277 277 275 274 272 270 269 269 270 272 275 278 281 283 285 288 291 295 298 299 300 301 301 301 304 307 308 304 300 300 298 297 298 300 301 302 303 303 303 303 302 302 302 303 305 306 305 306 308 311 313 314 313 313 312 310 309 307 305 301 296 289 282 277 273 271 269 269 269 270 271 274 276 278 280 281 281 280 279 279 279
275 275 276 277 277 277 275 273 271 269 269 269 270 273 276 279 282 284 286 288 290 292 295 298 300 300 300 299 299 300 303 303 299 296 295 295 295 296 297 298 300 301 302 303 303 304 304 304 304 305 306 306 307 308 310 312 313 313 312 312 311 309 308 306 304 300 294 288 283 279 275 273 271 270 271 273 275 278 280 282 283 282 281 278 276 275
277 278 278 279 279 277 274 272 269 269 270 271 274 277 281 284 286 287 288 289 290 291 292 294 295 297 299 299 299 299 301 300 296 293 292 292 293 294 294 296 298 300 301 301 302 304 305 306 306 306 307 308 309 310 312 312 312 312 312 313 312 311 309 308 306 303 300 295 291 286 283 280 277 276 275 277 278 279 281 282 283 283 281 278 275 272
278 278 279 280 278 276 274 272 271 271 273 275 278 281 284 286 287 288 288 288 288 289 290 291 292 293 293 294 295 296 296 295 293 291 291 291 292 292 293 295 297 299 300 301 302 303 305 306 307 308 309 309 310 311 312 313 313 313 313 313 312 312 311 310 309 306 304 300 297 292 289 286 283 282 281 281 281 281 282 282 282 282 282 280 276 272
279 280 281 281 279 277 275 274 274 274 276 278 281 284 287 288 289 289 288 288 288 288 288 289 289 289 289 289 289 290 290 289 289 289 289 289 290 292 293 295 297 298 300 300 301 303 304 305 306 307 309 310 312 312 312 313 314 315 314 312 311 310 311 311 309 307 305 303 300 297 294 291 289 288 288 287 286 285 285 285 285 285 286 285 282 278
281 282 282 281 280 280 279 279 278 279 281 284 288 291 293 293 292 292 291 291 290 289 288 287 286 285 284 283 284 284 285 285 286 286 287 287 289 290 293 295 297 298 300 301 302 303 304 305 306 307 309 310 312 312 313 313 314 315 315 314 313 312 311 310 308 307 305 304 303 300 298 295 294 294 293 291 290 289 289 288 289 289 290 290 290 287
283 282 282 282 283 284 284 284 285 287 290 293 295 296 297 296 295 294 292 291 290 289 287 286 284 283 282 281 281 280 281 281 282 283 285 286 287 290 293 295 297 299 300 302 304 305 305 306 307 308 309 310 311 311 311 312 313 314 314 314 313 312 310 309 308 307 306 304 302 301 300 298 298 297 296 294 292 291 290 290 291 291 291 291 292 292
285 284 284 285 287 288 289 291 293 295 297 299 299 299 298 296 295 293 291 289 286 284 283 283 282 281 280 278 277 277 277 278 279 281 282 284 287 290 293 295 297 299 301 303 304 304 305 306 307 308 309 311 311 310 309 310 311 312 312 313 313 312 310 309 309 310 309 306 304 303 302 302 302 301 299 297 294 292 291 291 291 292 293 293 292 292
284 285 286 288 289 289 291 293 296 297 298 298 297 296 296 294 293 291 288 285 283 280 279 279 280 279 276 272 269 270 271 273 275 278 280 283 285 289 292 295 297 299 301 303 303 304 305 306 306 307 309 310 310 309 307 309 311 312 312 313 314 313 312 312 312 313 312 310 309 308 308 308 308 305 302 299 296 294 293 293 292 293 294 296 296 295
285 285 286 286 287 288 290 292 293 293 293 293 293 293 292 292 290 289 287 285 283 281 279 278 279 278 276 273 270 270 270 273 277 279 282 284 286 289 291 294 296 298 300 301 303 304 306 306 307 309 311 310 309 308 307 309 311 313 313 314 314 312 309 310 314 317 316 315 315 315 315 315 313 309 305 302 301 300 299 299 298 297 298 299 299 298
283 283 282 283 284 285 287 288 288 288 288 289 289 290 291 291 291 290 288 287 285 283 282 281 281 282 282 278 277 278 279 281 283 286 287 288 289 289 290 292 294 297 300 301 303 305 307 309 310 312 313 311 309 307 307 309 311 313 314 314 314 312 311 312 316 318 318 319 319 319 320 320 318 314 311 309 309 308 307 307 306 306 305 305 304 303
279 277 277 278 279 282 284 284 284 285 286 287 288 290 292 293 294 293 291 289 288 287 286 286 288 290 292 292 292 291 290 289 289 289 290 290 289 289 290 292 295 299 302 305 308 310 311 312 313 314 315 313 310 308 308 310 311 312 313 314 314 313 313 314 317 318 319 320 320 321 323 323 321 317 314 313 313 312 311 310 310 309 309 308 307 306
274 272 272 274 276 279 281 282 283 284 286 288 290 293 295 297 297 296 294 292 290 290 290 292 295 298 299 301 303 302 300 296 294 294 294 294 294 294 295 298 301 305 308 311 312 313 314 315 316 316 315 312 309 309 310 311 311 312 313 314 314 314 314 315 317 319 320 320 321 322 323 323 319 315 313 312 312 311 310 309 308 308 307 307 306 304
270 269 270 272 275 278 280 282 284 285 287 290 293 296 299 301 301 300 297 295 293 294 295 298 301 303 303 305 306 306 305 303 301 299 300 300 300 300 302 304 307 310 312 314 316 316 317 317 317 316 314 311 309 309 312 313 313 313 313 313 314 314 314 315 318 319 319 319 320 321 321 319 315 313 312 311 309 307 306 306 305 304 304 303 302 301
267 267 268 272 275 279 282 285 286 288 290 293 296 299 302 303 303 302 300 298 297 298 301 303 305 306 307 308 309 309 308 306 304 302 302 302 302 303 306 308 310 313 315 316 317 319 319 318 318 316 315 313 311 311 313 315 315 314 314 313 313 313 313 314 316 318 317 317 317 316 314 311 309 309 308 307 305 303 302 301 300 300 300 301 300 299
265 267 270 274 278 282 285 288 289 292 294 297 300 302 304 305 304 303 301 301 302 304 306 308 310 311 311 312 313 312 311 308 305 304 304 305 305 307 309 310 312 314 316 318 320 321 320 319 317 315 314 314 313 312 312 314 315 314 313 311 311 311 310 311 313 314 314 312 311 310 307 305 304 303 302 300 298 298 298 298 298 299 300 301 300 299
264 267 272 277 282 286 289 291 293 296 298 301 304 305 307 308 307 307 307 308 310 312 313 314 316 316 316 316 316 315 313 311 308 307 307 308 309 309 310 310 312 315 318 320 321 322 321 319 316 314 313 313 313 313 311 311 312 312 309 308 309 309 307 307 309 310 310 308 306 304 302 301 300 300 299 298 298 298 299 300 301 302 303 304 303 301